Regional Weather Roundup
Issued by NWS Midland/Odessa, TX

Home | Current Version | Previous Version | Text Only | Print | Product List | Glossary On
Versions: 1 2 3 4 5 6 7 8 9 10 11 12 13 14 15 16 17 18 19 20 21 22 23 24 25 26 27 28 29 30 31 32 33 34 35 36 37 38 39 40 41 42 43 44 45 46 47 48 49 50
789
ASUS44 KMAF 262010
RWRMAF
MIDLAND AREA WEATHER ROUNDUP
NATIONAL WEATHER SERVICE MIDLAND TX
300 PM CDT WED APR 26 2017

...IN SOUTHWEST TEXAS AND SOUTHEAST NEW MEXICO...

CITY           SKY/WX    TMP DP  RH WIND       PRES   REMARKS
ALPINE         SUNNY     75  19  12 W18G25    29.93F
ANDREWS        FAIR      65  32  29 NE3G18    29.86S
ARTESIA        SUNNY     66  34  30 E9        29.85F
BIG SPRING     SUNNY     66  34  29 NW15G25   29.84F
CARLSBAD       SUNNY     69  32  25 VRB7      29.84F
DRYDEN           N/A     85  25  11 N22G29    29.73F
FORT STOCKTON  SUNNY     76  28  17 NW22G30   29.85S
GUAD PASS      SUNNY     70  18  13 SW24G30   29.91F
HOBBS          MOSUNNY   64  32  29 N6        29.87F
MARFA          SUNNY     72  18  13 W25G32    29.93S
MIDLAND AIRPK  SUNNY     69  35  28 NW14G20   29.85S
MIDLAND INTL   SUNNY     68  36  30 NW12G21   29.85F
ODESSA         MOSUNNY   69  34  27 N10G20    29.85F
PECOS          SUNNY     73  30  20 NW15G23   29.84F
PRESIDIO       FAIR      83  33  16 W16G29    29.82F
SEMINOLE       SUNNY     65  35  33 N7        29.86F
SNYDER         MOSUNNY  N/A N/A N/A N17G24    29.82F
WINK           SUNNY     71  35  26 N15G22    29.83F
$$
...OTHER STATIONS IN TEXAS...

CITY           SKY/WX    TMP DP  RH WIND       PRES   REMARKS
ABILENE        PTSUNNY   62  42  47 NW17G32   29.78F
AMARILLO       MOSUNNY   61  34  36 NW20G33   29.81R
AUSTIN         MOSUNNY   91  43  18 NW17G31   29.57F
BROWNSVILLE    SUNNY    103  58  22 NW21G31   29.53F HX 102
CORPUS CHRISTI MOSUNNY   95  64  35 N22G30    29.55F
DALLAS FTW     CLOUDY    60  48  64 NW21      29.66R
DEL RIO        SUNNY     89  35  14 NW23G32   29.65F
EL PASO        MOSUNNY   74  14  10 W10G20    29.87F
HOUSTON INT    PTSUNNY   86  72  62 S12       29.53F
LUBBOCK        MOSUNNY   65  36  34 N10       29.83S
SAN ANGELO     SUNNY     76  38  25 NW25G37   29.77R
SAN ANTONIO    SUNNY     91  40  16 W24G35    29.62R
WACO           SUNNY     75  55  49 NW22G31   29.62R
WICHITA FALLS  NOT AVBL
$$
...OTHER LOCATIONS IN NEW MEXICO...

CITY           SKY/WX    TMP DP  RH WIND       PRES   REMARKS
ALAMOGORDO     SUNNY     66  16  14 W5        29.89F
ALBUQUERQUE    MOSUNNY   62  21  20 W14       29.88F
CANNON AFB     CLOUDY    61  33  34 SW12G22   29.84F
CLOVIS         MOSUNNY   57  36  44 SW7       29.84F
HOLLOMAN AFB   SUNNY     69  15  12 W12       29.90F
ROSWELL        SUNNY     67  34  29 VRB7      29.84F
RUIDOSO        SUNNY     55  18  22 W5        29.93F
SANTA FE       CLOUDY    59  27  29 W18G33    29.85F
TRUTH OR CONSE SUNNY     70  14  11 S12G23    29.86F
TUCUMCARI      MOSUNNY   61  39  44 SE8       29.79F
$$




USA.gov is the U.S. government's official web portal to all federal, state and local government web resources and services.